Location: Boissi�res
(45.2500°N, 2.3667°E)
Time: 13:58:10
(UTC+00:00)

ISS - Pass Details

Date: 24 September 2021
Orbit: 417 x 423 km, 51.6° (Epoch: 28 October)

Event Time Altitude Azimuth Distance (km) Brightness Sun altitude
Rises 20:30:07 0° 296° (WNW) 2,368 1.3 -28.7°
Reaches altitude 10° 20:32:22 10° 307° (NW) 1,504 0.0 -29.0°
Enters shadow 20:33:20 17° 317° (NW) 1,167 -0.8 -29.2°
